Regional Weather Roundup
Issued by NWS Green Bay, WI

Home | Current Version | Previous Version | Text Only | Print | Product List | Glossary On
Versions: 1 2 3 4 5 6 7 8 9 10 11 12 13 14 15 16 17 18 19 20 21 22 23 24 25 26 27 28 29 30 31 32 33 34 35 36 37 38 39 40 41 42 43 44 45 46 47 48 49 50
000
ASUS43 KGRB 301811
RWRGRB

NORTH-CENTRAL AND NORTHEAST WISCONSIN REGIONAL WEATHER ROUNDUP
NATIONAL WEATHER SERVICE GREEN BAY WI
100 PM CDT SUN AUG 30 2015

WIZ005-009-010>012-018-019-301900-
NORTH CENTRAL WISCONSIN

CITY           SKY/WX    TMP DP  RH WIND       PRES   REMARKS
IRONWOOD       SUNNY     77  63  61 S13       29.91F
MANITOWISH WTR SUNNY     73  63  69 S12G20    30.00F
ARBOR VITAE    SUNNY     77  66  69 S12       30.01F
EAGLE RIVER    SUNNY     73  58  60 SW10      30.01F
LAND O LAKES   SUNNY     75  59  58 SW12      30.01F
RHINELANDER    MOSUNNY   71  61  70 VRB7      30.04F
PHILLIPS       SUNNY     73  64  74 S12       30.02F
ANTIGO         MOSUNNY   71  61  70 SW9       30.06F
TOMAHAWK       SUNNY     72  62  70 S5        30.04F
MERRILL        MOSUNNY   71  63  76 SW8       30.05F
$$

WIZ013-073-301900-
NORTHEAST WISCONSIN

CITY           SKY/WX    TMP DP  RH WIND       PRES   REMARKS
IRON MOUNTAIN  SUNNY     78  61  55 SW9       29.99F
MARINETTE      MOSUNNY   72  61  68 SW9       30.02F
OCONTO         PTSUNNY   73  64  73 SW8       30.04S
$$

WIZ017-030-035>037-045-301900-
CENTRAL WISCONSIN

CITY           SKY/WX    TMP DP  RH WIND       PRES   REMARKS
MEDFORD        CLOUDY    71  64  78 S8        30.05F
WAUSAU         MOSUNNY   72  62  71 SW8       30.03F
MOSINEE        MOSUNNY   72  64  78 S9        30.07F
MARSHFIELD     SUNNY     74  61  63 S9        30.05F
WISC RAPIDS    MOSUNNY   73  61  65 S7        30.07F
STEVENS POINT  MOSUNNY   71  61  70 SW8       30.06F
WAUPACA        SUNNY     73  63  69 SW7       30.06F
SHAWANO        PTSUNNY   73  62  69 W8        30.05F
CLINTONVILLE   CLOUDY    72  61  68 SW10      30.06S
WAUTOMA        MOSUNNY   72  63  73 S6        30.07F
$$

WIZ038-039-048-051-301900-
FOX VALLEY

CITY           SKY/WX    TMP DP  RH WIND       PRES   REMARKS
NWS GREEN BAY  PTSUNNY   72  63  73 SW8       30.05F
APPLETON       CLOUDY    70  61  73 SW7       30.05F
OSHKOSH        CLOUDY    70  61  73 SW7       30.07S
FOND DU LAC    CLOUDY    71  62  73 SW7       30.07F
$$

WIZ022-050-052-301900-
EAST CENTRAL WISCONSIN

CITY           SKY/WX    TMP DP  RH WIND       PRES   REMARKS
EPHRAIM        FAIR      70  61  73 SW7       30.03F
STURGEON BAY   MOSUNNY   72  63  73 SW9       30.06F
MANITOWOC      CLOUDY    69  62  78 MISG      30.07F
SHEBOYGAN      CLOUDY    70  62  76 SW8       30.07F
$$

LMZ563-521-522-541>543-301900-
LAKESHORE

STATION/POSITION TIME  TEMP    WIND        PRES    VSBY  WAVE
                       AIR SEA DIR/SP/G                  HT/PER
                 (UTC) (F)     (DEG/KT/KT) (MB)    (MI)  (FT/S)
SHEBOYGAN LKSHOR 1800   58     160/  4/  5 1018.5F
NORTHPORT PIER   1700   67     150/  7/ 12 1016.9F
N MID LAKE BUOY  1750   64 65  210/ 12/ 16 1016.9F         1/ 3
S GREEN BAY BUOY 1800   67 64  210/  8/ 10 1018.7
CHAMBERS ISLAND  1700   67     170/  6/ 13 1017.3F
$$



USA.gov is the U.S. government's official web portal to all federal, state and local government web resources and services.